Location: Colorado Springs
(38.8340°N, 104.8210°W)
Time: 14:54:30
(UTC-06:00)

OTV 5 (USA 277) - Pass Details

Date: 16 October 2017
Orbit: 404 x 417 km, 43.0° (Epoch: 07 September)

Event Time Altitude Azimuth Distance (km) Brightness Sun altitude
Rises 18:59:45 0° 278° (W) 2,352 ? -8.7°
Reaches altitude 10° 19:01:56 10° 286° (WNW) 1,490 ? -9.1°
Maximum altitude 19:05:08 39° 357° (N) 645 ? -9.7°
Enters shadow 19:07:46 14° 64° (ENE) 1,284 ? -10.3°
